Time,TemperatureF,DewpointF,PressureIn,WindDirection,WindDirectionDegrees,WindSpeedMPH,WindSpeedGustMPH,Humidity,HourlyPrecipIn,Conditions,Clouds,dailyrainin,SoftwareType,DateUTC
2013-01-25 07:33:00,47.0,47.0,30.13,SE,135,0.0,2.0,99,0.00,,,0.00,,2013-01-25 15:33:00,
2013-01-25 07:42:00,47.0,47.0,30.13,SE,135,0.0,2.0,99,0.00,,,0.00,,2013-01-25 15:42:00,
2013-01-25 07:53:00,48.0,48.0,30.14,SE,135,0.0,1.0,99,0.00,,,0.00,,2013-01-25 15:53:00,
2013-01-25 08:02:00,48.0,48.0,30.14,SE,135,0.0,1.0,99,0.00,,,0.00,,2013-01-25 16:02:00,
2013-01-25 08:11:00,48.0,48.0,30.14,SE,135,0.0,1.0,99,0.00,,,0.00,,2013-01-25 16:11:00,
2013-01-25 08:21:00,47.0,47.0,30.14,SE,135,1.0,2.0,99,0.00,,,0.00,,2013-01-25 16:21:00,
2013-01-25 08:32:00,47.0,47.0,30.13,SE,135,1.0,1.0,99,0.00,,,0.00,,2013-01-25 16:32:00,
2013-01-25 08:42:00,47.0,47.0,30.13,SE,135,1.0,1.0,99,0.00,,,0.00,,2013-01-25 16:42:00,
2013-01-25 08:51:00,48.0,48.0,30.13,SE,135,0.0,1.0,99,0.00,,,0.00,,2013-01-25 16:51:00,
2013-01-25 09:01:00,49.0,49.0,30.13,SE,135,0.0,0.0,99,0.00,,,0.00,,2013-01-25 17:01:00,
2013-01-25 09:11:00,49.0,49.0,30.13,SE,135,0.0,0.0,99,0.00,,,0.00,,2013-01-25 17:11:00,
2013-01-25 09:21:00,49.0,49.0,30.13,SE,135,0.0,2.0,99,0.00,,,0.00,,2013-01-25 17:21:00,
2013-01-25 09:32:00,50.0,50.0,30.13,SE,135,0.0,1.0,99,0.00,,,0.00,,2013-01-25 17:32:00,
2013-01-25 09:42:00,50.0,50.0,30.13,SE,135,0.0,1.0,99,0.00,,,0.00,,2013-01-25 17:42:00,
2013-01-25 09:52:00,50.0,50.0,30.13,SE,135,0.0,1.0,99,0.00,,,0.00,,2013-01-25 17:52:00,
2013-01-25 10:02:00,50.0,50.0,30.13,SE,135,0.0,1.0,99,0.00,,,0.00,,2013-01-25 18:02:00,
2013-01-25 15:22:00,59.0,52.0,30.07,West,261,1.0,4.0,77,0.00,,,0.00,,2013-01-25 23:22:00,
2013-01-25 15:32:00,59.0,53.0,30.06,NNW,328,0.0,3.0,81,0.00,,,0.00,,2013-01-25 23:32:00,
2013-01-25 15:42:00,59.0,53.0,30.06,NNW,328,0.0,3.0,81,0.00,,,0.00,,2013-01-25 23:42:00,
2013-01-25 15:52:00,59.0,54.0,30.06,West,261,1.0,2.0,82,0.00,,,0.00,,2013-01-25 23:52:00,
2013-01-25 16:01:00,59.0,54.0,30.05,NNW,343,1.0,3.0,83,0.00,,,0.00,,2013-01-26 00:01:00,
2013-01-25 16:11:00,59.0,54.0,30.05,NNW,343,1.0,3.0,83,0.00,,,0.00,,2013-01-26 00:11:00,
2013-01-25 16:22:00,59.0,54.0,30.04,West,266,1.0,3.0,84,0.00,,,0.00,,2013-01-26 00:22:00,
2013-01-25 16:32:00,59.0,54.0,30.03,West,266,0.0,0.0,84,0.00,,,0.00,,2013-01-26 00:32:00,
2013-01-25 16:41:00,59.0,54.0,30.03,West,266,0.0,0.0,84,0.00,,,0.00,,2013-01-26 00:41:00,
2013-01-25 16:52:00,58.0,54.0,30.03,West,266,0.0,0.0,85,0.00,,,0.00,,2013-01-26 00:52:00,
2013-01-25 17:01:00,58.0,54.0,30.02,West,266,0.0,0.0,87,0.00,,,0.00,,2013-01-26 01:01:00,
2013-01-25 17:11:00,58.0,54.0,30.02,West,266,0.0,0.0,87,0.00,,,0.00,,2013-01-26 01:11:00,
2013-01-25 17:22:00,58.0,54.0,30.02,West,266,0.0,0.0,88,0.00,,,0.00,,2013-01-26 01:22:00,
2013-01-25 17:31:00,57.0,54.0,30.02,West,266,0.0,0.0,89,0.00,,,0.00,,2013-01-26 01:31:00,
2013-01-25 17:42:00,57.0,54.0,30.02,West,266,0.0,0.0,89,0.00,,,0.00,,2013-01-26 01:42:00,
2013-01-25 17:52:00,56.0,53.0,30.02,West,266,0.0,0.0,90,0.00,,,0.00,,2013-01-26 01:52:00,
2013-01-25 18:01:00,55.0,52.0,30.02,West,266,0.0,0.0,91,0.00,,,0.00,,2013-01-26 02:01:00,
2013-01-25 18:11:00,55.0,52.0,30.02,West,266,0.0,0.0,91,0.00,,,0.00,,2013-01-26 02:11:00,
2013-01-25 18:21:00,55.0,53.0,30.02,West,266,0.0,0.0,92,0.00,,,0.00,,2013-01-26 02:21:00,
2013-01-25 18:32:00,54.0,52.0,30.03,West,266,0.0,0.0,92,0.00,,,0.00,,2013-01-26 02:32:00,
2013-01-25 18:42:00,54.0,52.0,30.03,West,266,0.0,0.0,92,0.00,,,0.00,,2013-01-26 02:42:00,
2013-01-25 18:52:00,54.0,52.0,30.03,West,266,0.0,0.0,94,0.00,,,0.00,,2013-01-26 02:52:00,
2013-01-25 19:01:00,53.0,51.0,30.03,West,266,0.0,0.0,94,0.00,,,0.00,,2013-01-26 03:01:00,
2013-01-25 19:11:00,53.0,51.0,30.03,West,266,0.0,0.0,94,0.00,,,0.00,,2013-01-26 03:11:00,
2013-01-25 19:21:00,53.0,51.0,30.04,West,266,0.0,0.0,94,0.00,,,0.00,,2013-01-26 03:21:00,
2013-01-25 19:31:00,52.0,51.0,30.03,SW,223,0.0,0.0,95,0.00,,,0.00,,2013-01-26 03:31:00,
2013-01-25 19:42:00,52.0,51.0,30.03,SW,223,0.0,0.0,95,0.00,,,0.00,,2013-01-26 03:42:00,
2013-01-25 19:51:00,52.0,51.0,30.03,SW,223,0.0,0.0,96,0.00,,,0.00,,2013-01-26 03:51:00,
2013-01-25 20:01:00,51.0,50.0,30.03,SW,223,0.0,0.0,96,0.00,,,0.00,,2013-01-26 04:01:00,
2013-01-25 20:12:00,51.0,50.0,30.03,SW,223,0.0,0.0,96,0.00,,,0.00,,2013-01-26 04:12:00,
2013-01-25 20:21:00,51.0,50.0,30.03,SW,223,0.0,0.0,96,0.00,,,0.00,,2013-01-26 04:21:00,
2013-01-25 20:32:00,51.0,50.0,30.03,SW,223,0.0,0.0,96,0.00,,,0.00,,2013-01-26 04:32:00,